Sevilla, Spain

12:12 PM CEST on July 25, 2017 (GMT +0200)
San Pablo

Weather History for LEZL - November, 2012

Change the Weather History Date:

Monday, November 12, 2012

  Actual Average Record
Temperature  
Mean Temperature 58 °F -  
Max Temperature 66 °F 64 °F 80 °F (2011)
Min Temperature 50 °F 46 °F 37 °F (2001)
Degree Days  
Heating Degree Days 7    
Growing Degree Days 8 (Base 50)    
Moisture  
Dew Point 44 °F    
Average Humidity 62    
Maximum Humidity 82    
Minimum Humidity 49    
Precipitation  
Precipitation 0.00 in - - ()
Sea Level Pressure  
Sea Level Pressure 30.08 in    
Wind  
Wind Speed 7 mph ()    
Max Wind Speed 14 mph    
Max Gust Speed -    
Averages and records for this station are not official NWS values.
T = Trace of Precipitation, MM = Missing Value Source: Averaged Metar Reports

Daily Weather History Graph

Daily Weather History Graph

Search for Another Location

Airport or City:

Trip Planner

Search our weather history database for the weather conditions in past years. The results will help you decide how hot, cold, wet, or windy it might be!

Date:

Astronomy

Nov. 12, 2012 Rise Set
Actual Time 8:00 AM CET 6:14 PM CET
Civil Twilight 7:32 AM CET 6:42 PM CET
Nautical Twilight 7:01 AM CET 7:14 PM CET
Astronomical Twilight 6:30 AM CET 7:44 PM CET
Moon 6:10 AM CET (11/12) 5:09 PM CET (11/12)
Length of Visible Light 11h 10m
Length of Day
10h 14m
Waning Crescent, 3% of the Moon is Illuminated
Nov 12
Waning Crescent
Nov 13
New
Nov 20
First Quarter
Nov 28
Full
Dec 6
Last Quarter

Hourly Weather History & Observations

Time (CET) Temp. Dew Point Humidity Pressure Visibility Wind Dir Wind Speed Gust Speed Precip Events Conditions
12:00 AM 51.8 °F 39.2 °F 62% 30.01 in - NNW 9.2 mph - N/A   Clear
12:30 AM 51.8 °F 37.4 °F 58% 30.01 in - NNW 10.4 mph - N/A   Clear
1:00 AM 50.0 °F 39.2 °F 66% 30.01 in - NW 6.9 mph - N/A   Clear
4:30 AM 51.8 °F 37.4 °F 58% 30.01 in - NNE 10.4 mph - N/A   Clear
5:00 AM 51.8 °F 39.2 °F 62% 30.01 in - NNE 9.2 mph - N/A   Clear
5:30 AM 51.8 °F 37.4 °F 58% 30.01 in - North 10.4 mph - N/A   Clear
6:00 AM 51.8 °F 37.4 °F 58% 30.01 in - NNE 9.2 mph - N/A   Clear
6:30 AM 51.8 °F 39.2 °F 62% 30.01 in - NNE 5.8 mph - N/A   Clear
7:00 AM 50.0 °F 37.4 °F 62% 30.04 in - North 9.2 mph - N/A   Clear
7:30 AM 51.8 °F 37.4 °F 58% 30.04 in - North 10.4 mph - N/A   Clear
8:00 AM 50.0 °F 39.2 °F 66% 30.04 in - NNE 6.9 mph - N/A   Clear
8:30 AM 50.0 °F 39.2 °F 66% 30.06 in - NE 3.5 mph - N/A   Clear
9:00 AM 50.0 °F 41.0 °F 71% 30.06 in - NE 4.6 mph - N/A   Clear
9:30 AM 51.8 °F 41.0 °F 67% 30.09 in - North 6.9 mph - N/A   Clear
10:00 AM 55.4 °F 41.0 °F 58% 30.09 in - North 8.1 mph - N/A   Clear
10:30 AM 57.2 °F 41.0 °F 55% 30.09 in - NNE 9.2 mph - N/A   Clear
11:00 AM 59.0 °F 41.0 °F 51% 30.09 in - NE 13.8 mph - N/A   Clear
1:00 PM 62.6 °F 44.6 °F 52% 30.12 in - NE 11.5 mph - N/A   Clear
2:30 PM 64.4 °F 46.4 °F 52% 30.09 in - North - - N/A   Clear
3:00 PM 66.2 °F 48.2 °F 52% 30.06 in - ENE 9.2 mph - N/A   Clear
3:30 PM 66.2 °F 46.4 °F 49% 30.06 in - East 10.4 mph - N/A   Clear
4:00 PM 66.2 °F 46.4 °F 49% 30.09 in - ENE 9.2 mph - N/A   Clear
4:30 PM 66.2 °F 46.4 °F 49% 30.09 in - ENE 9.2 mph - N/A   Clear
5:00 PM 66.2 °F 46.4 °F 49% 30.09 in - ENE 8.1 mph - N/A   Clear
5:30 PM 64.4 °F 48.2 °F 56% 30.09 in - East 4.6 mph - N/A   Clear
6:00 PM 62.6 °F 50.0 °F 63% 30.09 in - East 2.3 mph - N/A   Clear
6:30 PM 62.6 °F 50.0 °F 63% 30.09 in - East 2.3 mph - N/A   Clear
7:00 PM 59.0 °F 50.0 °F 72% 30.12 in - West 1.2 mph - N/A   Clear
7:30 PM 59.0 °F 50.0 °F 72% 30.12 in - North 2.3 mph - N/A   Clear
8:00 PM 59.0 °F 48.2 °F 67% 30.12 in - North 3.5 mph - N/A   Clear
8:30 PM 57.2 °F 48.2 °F 72% 30.12 in - NE 3.5 mph - N/A   Clear
9:00 PM 57.2 °F 48.2 °F 72% 30.12 in - Variable 2.3 mph - N/A   Clear
9:30 PM 57.2 °F 48.2 °F 72% 30.12 in - Variable 1.2 mph - N/A   Clear
10:00 PM 57.2 °F 48.2 °F 72% 30.15 in - NNE 6.9 mph - N/A   Clear
10:30 PM 55.4 °F 48.2 °F 77% 30.15 in - NNE 5.8 mph - N/A   Clear
11:00 PM 55.4 °F 48.2 °F 77% 30.15 in - NE 3.5 mph - N/A   Clear
11:30 PM 53.6 °F 48.2 °F 82% 30.15 in - NNE 4.6 mph - N/A   Clear